Location: Staunton
(38.1490°N, 79.0720°W)
Time: 20:39:15
(UTC-04:00)

ISS - Pass Details

Date: 20 September 2018
Orbit: 403 x 409 km, 51.6° (Epoch: 24 September)

Event Time Altitude Azimuth Distance (km) Brightness Sun altitude
Rises 20:40:12 0° 215° (SW) 2,318 0.3 -17.1°
Reaches altitude 10° 20:42:20 10° 208° (SSW) 1,461 -0.9 -17.5°
Enters shadow 20:44:47 37° 171° (S) 652 -3.0 -18.0°
